Time,TemperatureF,DewpointF,PressureIn,WindDirection,WindDirectionDegrees,WindSpeedMPH,WindSpeedGustMPH,Humidity,HourlyPrecipIn,Conditions,Clouds,dailyrainin,SoftwareType,DateUTC
2013-05-28 00:09:00,52.5,49.0,30.07,North,5,8.0,8.0,88,0.00,,,0.00,Wunderground v.1.15,2013-05-28 04:09:00,
2013-05-28 00:19:00,52.6,49.1,30.07,North,5,8.0,8.0,88,0.00,,,0.00,Wunderground v.1.15,2013-05-28 04:19:00,
2013-05-28 00:29:00,52.7,49.2,30.07,North,5,7.0,11.0,88,0.00,,,0.00,Wunderground v.1.15,2013-05-28 04:29:00,
2013-05-28 00:39:00,53.0,49.8,30.08,North,5,4.0,4.0,89,0.00,,,0.00,Wunderground v.1.15,2013-05-28 04:39:00,
2013-05-28 00:49:00,54.2,50.4,30.08,North,5,3.0,3.0,87,0.00,,,0.00,Wunderground v.1.15,2013-05-28 04:49:00,
2013-05-28 00:59:00,54.5,50.1,30.08,North,5,2.0,10.0,85,0.00,,,0.00,Wunderground v.1.15,2013-05-28 04:59:00,
2013-05-28 01:09:00,54.5,49.8,30.09,North,5,2.0,2.0,84,0.00,,,0.00,Wunderground v.1.15,2013-05-28 05:09:00,
2013-05-28 01:19:00,54.4,49.3,30.09,North,5,0.0,4.0,83,0.00,,,0.00,Wunderground v.1.15,2013-05-28 05:19:00,
2013-05-28 01:29:00,54.2,49.1,30.09,North,5,0.0,1.0,83,0.00,,,0.00,Wunderground v.1.15,2013-05-28 05:29:00,
2013-05-28 01:39:00,54.0,49.0,30.09,North,5,0.0,0.0,83,0.00,,,0.00,Wunderground v.1.15,2013-05-28 05:39:00,
2013-05-28 01:49:00,53.7,49.0,30.09,North,5,0.0,1.0,84,0.00,,,0.00,Wunderground v.1.15,2013-05-28 05:49:00,
2013-05-28 01:59:00,53.3,48.6,30.09,North,5,0.0,0.0,84,0.00,,,0.00,Wunderground v.1.15,2013-05-28 05:59:00,
2013-05-28 02:09:00,53.0,48.6,30.09,North,5,1.0,1.0,85,0.00,,,0.00,Wunderground v.1.15,2013-05-28 06:09:00,
2013-05-28 02:18:00,52.5,48.1,30.09,North,5,0.0,3.0,85,0.00,,,0.00,Wunderground v.1.15,2013-05-28 06:18:00,
2013-05-28 02:28:00,52.3,48.2,30.09,North,5,1.0,2.0,86,0.00,,,0.00,Wunderground v.1.15,2013-05-28 06:28:00,
2013-05-28 02:38:00,52.1,48.3,30.09,North,5,0.0,2.0,87,0.00,,,0.00,Wunderground v.1.15,2013-05-28 06:38:00,
2013-05-28 02:48:00,51.8,48.1,30.08,North,5,1.0,2.0,87,0.00,,,0.00,Wunderground v.1.15,2013-05-28 06:48:00,
2013-05-28 02:59:00,51.5,47.8,30.08,North,5,1.0,2.0,87,0.00,,,0.00,Wunderground v.1.15,2013-05-28 06:59:00,
2013-05-28 03:08:00,51.2,47.8,30.08,North,5,1.0,2.0,88,0.00,,,0.00,Wunderground v.1.15,2013-05-28 07:08:00,
2013-05-28 03:18:00,51.0,47.6,30.08,North,5,1.0,1.0,88,0.00,,,0.00,Wunderground v.1.15,2013-05-28 07:18:00,
2013-05-28 03:28:00,51.0,47.9,30.08,North,5,1.0,2.0,89,0.00,,,0.00,Wunderground v.1.15,2013-05-28 07:28:00,
2013-05-28 03:38:00,51.1,48.0,30.08,North,5,2.0,3.0,89,0.00,,,0.00,Wunderground v.1.15,2013-05-28 07:38:00,
2013-05-28 03:49:00,50.8,47.7,30.08,North,5,1.0,3.0,89,0.00,,,0.00,Wunderground v.1.15,2013-05-28 07:49:00,
2013-05-28 03:59:00,50.5,47.4,30.08,North,5,2.0,2.0,89,0.00,,,0.00,Wunderground v.1.15,2013-05-28 07:59:00,
2013-05-28 04:09:00,50.3,47.2,30.08,North,5,1.0,4.0,89,0.00,,,0.00,Wunderground v.1.15,2013-05-28 08:09:00,
2013-05-28 04:19:00,50.1,47.3,30.08,North,5,1.0,3.0,90,0.00,,,0.00,Wunderground v.1.15,2013-05-28 08:19:00,
2013-05-28 04:29:00,51.0,47.9,30.08,North,5,1.0,4.0,89,0.00,,,0.00,Wunderground v.1.15,2013-05-28 08:29:00,
2013-05-28 04:39:00,52.8,48.4,30.08,North,5,2.0,2.0,85,0.00,,,0.00,Wunderground v.1.15,2013-05-28 08:39:00,
2013-05-28 04:49:00,53.8,48.4,30.08,North,5,1.0,1.0,82,0.00,,,0.00,Wunderground v.1.15,2013-05-28 08:49:00,
2013-05-28 04:59:00,54.2,48.2,30.08,North,5,1.0,6.0,80,0.00,,,0.00,Wunderground v.1.15,2013-05-28 08:59:00,
2013-05-28 05:09:00,54.3,47.9,30.08,North,5,1.0,3.0,79,0.00,,,0.00,Wunderground v.1.15,2013-05-28 09:09:00,
2013-05-28 05:19:00,54.1,48.1,30.09,North,5,1.0,1.0,80,0.00,,,0.00,Wunderground v.1.15,2013-05-28 09:19:00,
2013-05-28 05:29:00,53.9,48.2,30.09,North,5,2.0,3.0,81,0.00,,,0.00,Wunderground v.1.15,2013-05-28 09:29:00,
2013-05-28 05:39:00,53.7,48.3,30.09,North,5,2.0,4.0,82,0.00,,,0.00,Wunderground v.1.15,2013-05-28 09:39:00,
2013-05-28 05:49:00,53.5,48.5,30.09,North,5,1.0,4.0,83,0.00,,,0.00,Wunderground v.1.15,2013-05-28 09:49:00,
2013-05-28 05:59:00,53.6,49.2,30.09,North,5,0.0,3.0,85,0.00,,,0.00,Wunderground v.1.15,2013-05-28 09:59:00,
2013-05-28 06:09:00,53.8,49.7,30.09,North,5,1.0,4.0,86,0.00,,,0.00,Wunderground v.1.15,2013-05-28 10:09:00,
2013-05-28 06:19:00,53.9,50.4,30.10,North,5,2.0,3.0,88,0.00,,,0.00,Wunderground v.1.15,2013-05-28 10:19:00,
2013-05-28 06:29:00,53.7,50.5,30.10,North,5,1.0,4.0,89,0.00,,,0.00,Wunderground v.1.15,2013-05-28 10:29:00,
2013-05-28 06:39:00,53.7,50.5,30.10,North,5,0.0,4.0,89,0.00,,,0.00,Wunderground v.1.15,2013-05-28 10:39:00,
2013-05-28 06:48:00,53.7,50.5,30.10,North,5,1.0,2.0,89,0.00,,,0.00,Wunderground v.1.15,2013-05-28 10:48:00,
2013-05-28 06:58:00,53.6,50.7,30.10,North,5,3.0,3.0,90,0.00,,,0.00,Wunderground v.1.15,2013-05-28 10:58:00,
2013-05-28 07:08:00,53.5,50.9,30.11,North,5,2.0,2.0,91,0.00,,,0.00,Wunderground v.1.15,2013-05-28 11:08:00,
2013-05-28 07:18:00,53.8,51.5,30.11,North,5,2.0,2.0,92,0.00,,,0.00,Wunderground v.1.15,2013-05-28 11:18:00,
2013-05-28 07:28:00,54.0,51.7,30.11,North,5,2.0,2.0,92,0.00,,,0.00,Wunderground v.1.15,2013-05-28 11:28:00,
2013-05-28 07:39:00,54.2,51.9,30.11,North,5,2.0,2.0,92,0.00,,,0.00,Wunderground v.1.15,2013-05-28 11:39:00,
2013-05-28 07:49:00,54.5,52.2,30.11,North,5,1.0,5.0,92,0.00,,,0.00,Wunderground v.1.15,2013-05-28 11:49:00,
2013-05-28 07:59:00,55.5,53.2,30.11,North,5,1.0,1.0,92,0.00,,,0.00,Wunderground v.1.15,2013-05-28 11:59:00,
2013-05-28 08:08:00,56.2,53.6,30.11,North,5,1.0,4.0,91,0.00,,,0.00,Wunderground v.1.15,2013-05-28 12:08:00,
2013-05-28 08:18:00,57.0,53.8,30.11,North,5,1.0,5.0,89,0.00,,,0.00,Wunderground v.1.15,2013-05-28 12:18:00,
2013-05-28 08:28:00,57.5,53.7,30.11,North,5,1.0,5.0,87,0.00,,,0.00,Wunderground v.1.15,2013-05-28 12:28:00,
2013-05-28 08:38:00,58.5,54.6,30.11,North,5,1.0,1.0,87,0.00,,,0.00,Wunderground v.1.15,2013-05-28 12:38:00,
2013-05-28 08:49:00,59.3,54.8,30.12,North,5,0.0,2.0,85,0.00,,,0.00,Wunderground v.1.15,2013-05-28 12:49:00,
2013-05-28 08:59:00,59.7,53.9,30.12,North,5,1.0,2.0,81,0.00,,,0.00,Wunderground v.1.15,2013-05-28 12:59:00,
2013-05-28 09:09:00,60.5,54.0,30.12,North,5,1.0,1.0,79,0.00,,,0.00,Wunderground v.1.15,2013-05-28 13:09:00,
2013-05-28 09:19:00,59.9,54.1,30.12,North,5,1.0,5.0,81,0.00,,,0.00,Wunderground v.1.15,2013-05-28 13:19:00,
2013-05-28 09:29:00,59.3,53.8,30.12,North,5,2.0,4.0,82,0.00,,,0.00,Wunderground v.1.15,2013-05-28 13:29:00,
2013-05-28 09:39:00,59.4,53.6,30.12,North,5,1.0,5.0,81,0.00,,,0.00,Wunderground v.1.15,2013-05-28 13:39:00,
2013-05-28 09:49:00,59.6,53.4,30.12,North,5,2.0,5.0,80,0.00,,,0.00,Wunderground v.1.15,2013-05-28 13:49:00,
2013-05-28 09:59:00,60.0,54.2,30.12,North,5,1.0,5.0,81,0.00,,,0.00,Wunderground v.1.15,2013-05-28 13:59:00,
2013-05-28 10:09:00,59.8,53.6,30.12,North,5,2.0,2.0,80,0.00,,,0.00,Wunderground v.1.15,2013-05-28 14:09:00,
2013-05-28 10:19:00,59.6,54.1,30.13,North,5,2.0,6.0,82,0.00,,,0.00,Wunderground v.1.15,2013-05-28 14:19:00,
2013-05-28 10:29:00,59.6,54.1,30.13,North,5,2.0,2.0,82,0.00,,,0.00,Wunderground v.1.15,2013-05-28 14:29:00,
2013-05-28 10:39:00,58.9,53.7,30.12,North,5,2.0,6.0,83,0.00,,,0.00,Wunderground v.1.15,2013-05-28 14:39:00,
2013-05-28 10:49:00,59.6,54.4,30.13,North,5,1.0,1.0,83,0.00,,,0.00,Wunderground v.1.15,2013-05-28 14:49:00,
2013-05-28 10:59:00,60.0,54.5,30.13,North,5,1.0,1.0,82,0.00,,,0.00,Wunderground v.1.15,2013-05-28 14:59:00,
2013-05-28 11:09:00,60.3,54.1,30.13,North,5,1.0,1.0,80,0.00,,,0.00,Wunderground v.1.15,2013-05-28 15:09:00,
2013-05-28 11:19:00,60.5,54.3,30.13,North,5,1.0,6.0,80,0.00,,,0.00,Wunderground v.1.15,2013-05-28 15:19:00,
2013-05-28 11:29:00,60.7,54.1,30.13,North,5,1.0,8.0,79,0.00,,,0.00,Wunderground v.1.15,2013-05-28 15:29:00,
2013-05-28 11:39:00,60.6,54.7,30.13,North,5,3.0,3.0,81,0.00,,,0.00,Wunderground v.1.15,2013-05-28 15:39:00,
2013-05-28 11:49:00,62.1,55.9,30.13,North,5,0.0,9.0,80,0.00,,,0.00,Wunderground v.1.15,2013-05-28 15:49:00,
2013-05-28 11:59:00,62.9,56.3,30.13,North,5,1.0,1.0,79,0.00,,,0.00,Wunderground v.1.15,2013-05-28 15:59:00,
2013-05-28 12:09:00,65.3,52.4,30.13,North,5,5.0,7.0,63,0.00,,,0.00,Wunderground v.1.15,2013-05-28 16:09:00,
2013-05-28 12:18:00,68.0,53.1,30.12,North,5,5.0,5.0,59,0.00,,,0.00,Wunderground v.1.15,2013-05-28 16:18:00,
2013-05-28 12:28:00,69.0,52.6,30.12,North,5,6.0,6.0,56,0.00,,,0.00,Wunderground v.1.15,2013-05-28 16:28:00,
2013-05-28 12:38:00,69.3,52.4,30.12,North,5,5.0,5.0,55,0.00,,,0.00,Wunderground v.1.15,2013-05-28 16:38:00,
2013-05-28 12:48:00,69.3,51.9,30.12,North,5,4.0,4.0,54,0.00,,,0.00,Wunderground v.1.15,2013-05-28 16:48:00,
2013-05-28 12:58:00,69.5,51.1,30.12,North,5,3.0,3.0,52,0.00,,,0.00,Wunderground v.1.15,2013-05-28 16:58:00,
2013-05-28 13:08:00,69.4,51.5,30.12,North,5,4.0,10.0,53,0.00,,,0.00,Wunderground v.1.15,2013-05-28 17:08:00,
2013-05-28 13:18:00,69.2,52.3,30.11,North,5,3.0,3.0,55,0.00,,,0.00,Wunderground v.1.15,2013-05-28 17:18:00,
2013-05-28 13:28:00,69.0,52.2,30.11,North,5,4.0,10.0,55,0.00,,,0.00,Wunderground v.1.15,2013-05-28 17:28:00,
2013-05-28 13:38:00,68.6,51.3,30.11,North,5,5.0,14.0,54,0.00,,,0.00,Wunderground v.1.15,2013-05-28 17:38:00,
2013-05-28 13:49:00,68.2,50.4,30.11,North,5,6.0,6.0,53,0.00,,,0.00,Wunderground v.1.15,2013-05-28 17:49:00,
2013-05-28 13:59:00,67.8,49.5,30.11,North,5,4.0,4.0,52,0.00,,,0.00,Wunderground v.1.15,2013-05-28 17:59:00,
2013-05-28 14:09:00,67.4,49.2,30.11,North,5,5.0,5.0,52,0.00,,,0.00,Wunderground v.1.15,2013-05-28 18:09:00,
2013-05-28 14:19:00,66.8,49.1,30.11,North,5,6.0,6.0,53,0.00,,,0.00,Wunderground v.1.15,2013-05-28 18:19:00,
2013-05-28 14:29:00,66.2,50.0,30.11,North,5,5.0,13.0,56,0.00,,,0.00,Wunderground v.1.15,2013-05-28 18:29:00,
2013-05-28 14:39:00,65.5,48.9,30.11,North,5,7.0,7.0,55,0.00,,,0.00,Wunderground v.1.15,2013-05-28 18:39:00,
2013-05-28 14:49:00,64.7,48.6,30.11,North,5,8.0,8.0,56,0.00,,,0.00,Wunderground v.1.15,2013-05-28 18:49:00,
2013-05-28 14:59:00,63.5,50.2,30.11,North,5,9.0,9.0,62,0.00,,,0.00,Wunderground v.1.15,2013-05-28 18:59:00,
2013-05-28 15:09:00,62.3,52.0,30.11,North,5,7.0,15.0,69,0.00,,,0.00,Wunderground v.1.15,2013-05-28 19:09:00,
2013-05-28 15:19:00,61.5,53.1,30.11,North,5,5.0,15.0,74,0.00,,,0.00,Wunderground v.1.15,2013-05-28 19:19:00,
2013-05-28 15:29:00,60.8,53.2,30.11,North,5,5.0,5.0,76,0.00,,,0.00,Wunderground v.1.15,2013-05-28 19:29:00,
2013-05-28 15:39:00,60.3,53.8,30.11,North,9,3.0,10.0,79,0.00,,,0.00,Wunderground v.1.15,2013-05-28 19:39:00,
2013-05-28 15:49:00,59.1,53.6,30.12,North,9,5.0,5.0,82,0.00,,,0.01,Wunderground v.1.15,2013-05-28 19:49:00,
2013-05-28 15:59:00,58.6,54.1,30.12,North,9,3.0,11.0,85,0.04,,,0.02,Wunderground v.1.15,2013-05-28 19:59:00,
2013-05-28 16:09:00,58.1,54.2,30.12,North,9,3.0,6.0,87,0.07,,,0.03,Wunderground v.1.15,2013-05-28 20:09:00,
2013-05-28 16:19:00,57.6,54.1,30.12,North,9,2.0,2.0,88,0.04,,,0.04,Wunderground v.1.15,2013-05-28 20:19:00,
2013-05-28 16:29:00,57.6,54.7,30.12,North,9,2.0,5.0,90,0.07,,,0.05,Wunderground v.1.15,2013-05-28 20:29:00,
2013-05-28 16:39:00,57.7,54.8,30.11,North,9,2.0,6.0,90,0.05,,,0.05,Wunderground v.1.15,2013-05-28 20:39:00,
2013-05-28 16:49:00,57.4,54.8,30.11,North,5,3.0,3.0,91,0.07,,,0.07,Wunderground v.1.15,2013-05-28 20:49:00,
2013-05-28 16:59:00,57.5,54.9,30.11,North,5,1.0,8.0,91,0.06,,,0.07,Wunderground v.1.15,2013-05-28 20:59:00,
2013-05-28 17:09:00,57.4,55.1,30.11,North,5,2.0,5.0,92,0.00,,,0.08,Wunderground v.1.15,2013-05-28 21:09:00,
2013-05-28 17:19:00,57.3,55.0,30.12,North,5,2.0,2.0,92,0.00,,,0.08,Wunderground v.1.15,2013-05-28 21:19:00,
2013-05-28 17:29:00,57.2,54.9,30.12,North,5,2.0,5.0,92,0.04,,,0.09,Wunderground v.1.15,2013-05-28 21:29:00,
2013-05-28 17:39:00,57.2,54.9,30.11,North,5,2.0,5.0,92,0.04,,,0.09,Wunderground v.1.15,2013-05-28 21:39:00,
2013-05-28 17:48:00,57.4,55.4,30.10,North,5,1.0,4.0,93,0.08,,,0.11,Wunderground v.1.15,2013-05-28 21:48:00,
2013-05-28 17:59:00,57.4,55.4,30.10,North,5,1.0,1.0,93,0.05,,,0.11,Wunderground v.1.15,2013-05-28 21:59:00,
2013-05-28 18:08:00,57.4,55.4,30.10,North,5,2.0,5.0,93,0.00,,,0.11,Wunderground v.1.15,2013-05-28 22:08:00,
2013-05-28 18:18:00,57.3,55.3,30.10,North,5,2.0,2.0,93,0.00,,,0.11,Wunderground v.1.15,2013-05-28 22:18:00,
2013-05-28 18:28:00,57.3,55.6,30.10,North,5,3.0,3.0,94,0.00,,,0.12,Wunderground v.1.15,2013-05-28 22:28:00,
2013-05-28 18:38:00,57.3,55.6,30.10,North,5,3.0,3.0,94,0.07,,,0.13,Wunderground v.1.15,2013-05-28 22:38:00,
2013-05-28 18:49:00,57.4,55.7,30.10,North,5,4.0,9.0,94,0.04,,,0.14,Wunderground v.1.15,2013-05-28 22:49:00,
2013-05-28 18:59:00,57.5,55.8,30.10,North,5,4.0,11.0,94,0.09,,,0.15,Wunderground v.1.15,2013-05-28 22:59:00,
2013-05-28 19:09:00,57.5,55.8,30.09,North,5,5.0,12.0,94,0.04,,,0.15,Wunderground v.1.15,2013-05-28 23:09:00,
2013-05-28 19:19:00,57.6,55.9,30.09,North,5,5.0,5.0,94,0.00,,,0.15,Wunderground v.1.15,2013-05-28 23:19:00,
2013-05-28 19:29:00,57.7,56.3,30.09,North,5,4.0,4.0,95,0.00,,,0.15,Wunderground v.1.15,2013-05-28 23:29:00,
2013-05-28 19:39:00,57.6,56.2,30.08,North,5,5.0,5.0,95,0.00,,,0.15,Wunderground v.1.15,2013-05-28 23:39:00,
2013-05-28 19:49:00,57.6,56.2,30.08,North,5,5.0,14.0,95,0.00,,,0.15,Wunderground v.1.15,2013-05-28 23:49:00,
2013-05-28 19:59:00,57.5,56.1,30.08,North,5,5.0,5.0,95,0.00,,,0.15,Wunderground v.1.15,2013-05-28 23:59:00,
2013-05-28 20:09:00,57.5,56.1,30.07,North,5,6.0,14.0,95,0.00,,,0.16,Wunderground v.1.15,2013-05-29 00:09:00,
2013-05-28 20:19:00,57.5,56.1,30.07,North,5,7.0,16.0,95,0.00,,,0.16,Wunderground v.1.15,2013-05-29 00:19:00,
2013-05-28 20:29:00,57.5,56.1,30.07,North,5,6.0,16.0,95,0.00,,,0.16,Wunderground v.1.15,2013-05-29 00:29:00,
2013-05-28 20:39:00,57.4,56.0,30.06,North,5,7.0,7.0,95,0.00,,,0.16,Wunderground v.1.15,2013-05-29 00:39:00,
2013-05-28 20:49:00,57.2,55.8,30.05,North,5,8.0,17.0,95,0.00,,,0.16,Wunderground v.1.15,2013-05-29 00:49:00,
2013-05-28 20:59:00,57.0,55.6,30.05,North,5,8.0,8.0,95,0.00,,,0.17,Wunderground v.1.15,2013-05-29 00:59:00,
2013-05-28 21:09:00,57.0,55.6,30.06,North,5,6.0,6.0,95,0.00,,,0.17,Wunderground v.1.15,2013-05-29 01:09:00,
2013-05-28 21:19:00,56.9,55.5,30.05,North,5,8.0,15.0,95,0.00,,,0.17,Wunderground v.1.15,2013-05-29 01:19:00,
2013-05-28 21:29:00,56.7,55.3,30.05,North,5,7.0,17.0,95,0.00,,,0.17,Wunderground v.1.15,2013-05-29 01:29:00,
2013-05-28 21:39:00,56.5,55.1,30.05,North,5,8.0,21.0,95,0.00,,,0.17,Wunderground v.1.15,2013-05-29 01:39:00,
2013-05-28 21:49:00,56.4,55.0,30.05,North,5,8.0,18.0,95,0.00,,,0.17,Wunderground v.1.15,2013-05-29 01:49:00,
2013-05-28 21:59:00,56.4,55.0,30.05,North,5,8.0,8.0,95,0.00,,,0.17,Wunderground v.1.15,2013-05-29 01:59:00,
2013-05-28 22:09:00,56.4,55.0,30.05,North,5,8.0,8.0,95,0.00,,,0.17,Wunderground v.1.15,2013-05-29 02:09:00,
2013-05-28 22:18:00,56.3,54.9,30.06,North,5,8.0,18.0,95,0.00,,,0.17,Wunderground v.1.15,2013-05-29 02:18:00,
2013-05-28 22:28:00,56.3,54.9,30.06,North,5,8.0,22.0,95,0.00,,,0.17,Wunderground v.1.15,2013-05-29 02:28:00,
2013-05-28 22:39:00,56.2,54.8,30.05,North,5,7.0,18.0,95,0.00,,,0.17,Wunderground v.1.15,2013-05-29 02:39:00,
2013-05-28 22:49:00,56.1,54.7,30.05,North,5,7.0,17.0,95,0.00,,,0.17,Wunderground v.1.15,2013-05-29 02:49:00,
2013-05-28 22:59:00,56.2,54.8,30.05,North,5,6.0,6.0,95,0.00,,,0.17,Wunderground v.1.15,2013-05-29 02:59:00,
2013-05-28 23:08:00,56.3,54.9,30.05,North,5,6.0,6.0,95,0.00,,,0.17,Wunderground v.1.15,2013-05-29 03:08:00,
2013-05-28 23:18:00,56.4,55.3,30.05,North,5,7.0,13.0,96,0.00,,,0.17,Wunderground v.1.15,2013-05-29 03:18:00,
2013-05-28 23:28:00,56.6,55.5,30.05,North,5,8.0,15.0,96,0.00,,,0.17,Wunderground v.1.15,2013-05-29 03:28:00,
2013-05-28 23:38:00,56.7,55.6,30.05,North,5,7.0,13.0,96,0.00,,,0.17,Wunderground v.1.15,2013-05-29 03:38:00,
2013-05-28 23:49:00,56.8,55.4,30.05,North,5,6.0,6.0,95,0.00,,,0.17,Wunderground v.1.15,2013-05-29 03:49:00,
2013-05-28 23:59:00,56.8,55.4,30.05,North,5,8.0,8.0,95,0.00,,,0.17,Wunderground v.1.15,2013-05-29 03:59:00,